Home   Weather   New Orleans   Past weeks
Flag for USA

Past Weather in New Orleans, Louisiana, USA — Yesterday and Last 2 Weeks

Now
78 °F

Passing clouds.


Feels Like: 81 °F
Forecast: 83 / 76 °F
Wind: 15 mph from Southeast

Location: Lakefront Airport

Current Time: May 19, 2019 at 3:48:48 am

Latest Report: May 19, 2019 at 2:53 am


Visibility: 9 mi

Pressure: 29.87 "Hg

Humidity: 84%

Dew Point: 73 °F

Location of New OrleansLocation

Past Weather in New Orleans — Graph

°F

New Orleans Temperature Yesterday

Maximum temperature yesterday: 86 °F (at 12:53 pm)
Minimum temperature yesterday: 74 °F (at 2:53 am)
Average temperature yesterday: 80 °F

High & Low Weather Summary for the Past Weeks

 TemperatureHumidityPressure
High86 °F (May 9, 11:53 am)97% (May 12, 4:10 am)30.09 "Hg (May 12, 4:10 am)
Low68 °F (May 4, 11:53 am)39% (May 14, 11:53 am)29.74 "Hg (May 4, 5:53 pm)
Average76 °F75%29.91 "Hg
* Reported May 4 1:53 am — May 19 1:53 am, New Orleans. Weather by CustomWeather, © 2019

Note: Actual official high and low records may vary slightly from our data, if they occured in-between our weather recording intervals... More about our weather records

Advertising

New Orleans Weather History for the Previous 24 Hours

Scroll right to see more
 ConditionsComfort  
Time TempWeatherWind HumidityBarometerVisibility
1:53 am
Sun, May 19
78 °FPassing clouds.14 mph84%29.89 "Hg9 mi
1:08 am78 °FPassing clouds.15 mph84%29.89 "Hg10 mi
12:11 am79 °FPassing clouds.16 mph82%29.92 "Hg10 mi
11:53 pm
Sat, May 18
79 °FPassing clouds.17 mph82%29.89 "Hg10 mi
11:00 pm79 °FPassing clouds.14 mph82%29.92 "Hg10 mi
9:53 pm79 °FPartly cloudy.16 mph82%29.89 "Hg10 mi
8:53 pm79 °FPartly cloudy.14 mph82%29.88 "Hg10 mi
8:08 pm80 °FPartly cloudy.16 mph79%29.89 "Hg10 mi
7:53 pm80 °FPartly cloudy.17 mph79%29.86 "Hg10 mi
6:53 pm81 °FPartly sunny.18 mph74%29.85 "Hg10 mi
6:20 pm81 °FPartly sunny.15 mph77%29.89 "Hg10 mi
5:53 pm82 °FLight rain. Broken clouds.18 mph72%29.87 "Hg6 mi
4:53 pm84 °FBroken clouds.16 mph65%29.87 "Hg10 mi
3:53 pm85 °FScattered clouds.22 mph61%29.88 "Hg10 mi
2:53 pm84 °FCloudy.20 mph61%29.90 "Hg10 mi
1:53 pm86 °FPartly sunny.17 mph61%29.90 "Hg10 mi
12:53 pm86 °FScattered clouds.18 mph63%29.92 "Hg10 mi
11:53 am84 °FMostly cloudy.18 mph65%29.93 "Hg9 mi
10:53 am85 °FPassing clouds.17 mph63%29.93 "Hg10 mi
9:53 am83 °FScattered clouds.20 mph68%29.93 "Hg10 mi
8:53 am81 °FPassing clouds.14 mph77%29.94 "Hg10 mi
7:53 am79 °FPassing clouds.10 mph84%29.93 "Hg9 mi
6:53 am76 °FSunny.8 mph91%29.93 "Hg7 mi
5:53 am75 °FClear.6 mph90%29.92 "Hg8 mi
4:53 am75 °FClear.7 mph90%29.90 "Hg9 mi
3:53 am74 °FPassing clouds.6 mph88%29.91 "Hg10 mi
Weather by CustomWeather, © 2019

See weather overview